Home > Weather > Brighton > Past weeks

Flag for United Kingdom Past Weather in Brighton, England, United Kingdom — Yesterday and Last 2 Weeks

Now
57 °F

Rain. Partly sunny.


Feels Like: 52 °F
Forecast: 57 / 64 °F
Wind: 25 mph from Southwest

Location: Shoreham Airport

Current Time: Jun 29, 2016 at 3:40:10 PM

Latest Report: Jun 29, 2016 at 3:20 PM


Visibility: 4 mi

Pressure: 29.83 "Hg

Humidity: 94%

Dew Point: 55 °F

Location of BrightonLocation

Past Weather in Brighton — Graph

°F

Brighton Temperature Yesterday

Maximum temperature yesterday: 64 °F (at 2:50 PM)
Minimum temperature yesterday: 57 °F (at 7:50 AM)
Average temperature yesterday: 61 °F

High & Low Weather Summary for the Past Weeks

 TemperatureHumidityPressure
High70 °F (Jun 23, 1:50 PM)100% (Jun 16, 4:50 PM)30.27 "Hg (Jun 16, 4:50 PM)
Low55 °F (Jun 16, 4:50 PM)56% (Jun 27, 1:50 PM)29.42 "Hg (Jun 14, 5:20 PM)
Average62 °F83%29.93 "Hg
* Reported Jun 14 2:20 PM — Jun 29 2:20 PM, Brighton, Weather by CustomWeather, © 2016

Note: Actual official high and low records may vary slightly from our data, if they occured in-between our weather recording intervals... More about our weather records

Advertising

Brighton Weather History for the Previous 24 Hours

Scroll right to see more
 ConditionsComfort  
Time TempWeatherWind HumidityBarometerVisibility
2:20 PM
Wed, Jun 29
59 °FHeavy rain. Partly sunny.24 mph88%29.83 "Hg5 mi
1:50 PM59 °FLight rain. Partly sunny.23 mph88%29.83 "Hg5 mi
1:20 PM59 °FDrizzle. Partly sunny.23 mph88%29.86 "Hg6 mi
12:50 PM61 °FDrizzle. Partly sunny.25 mph83%29.86 "HgN/A
12:20 PM61 °FPartly sunny.24 mph83%29.86 "HgN/A
11:50 AM61 °FPartly sunny.22 mph83%29.86 "HgN/A
11:20 AM61 °FPartly sunny.23 mph88%29.86 "HgN/A
10:20 AM61 °FPartly sunny.20 mph83%29.86 "HgN/A
9:50 AM63 °FScattered clouds.17 mph77%29.86 "HgN/A
9:20 AM63 °FScattered clouds.18 mph77%29.89 "HgN/A
8:20 AM61 °FScattered clouds.17 mph83%29.89 "HgN/A
7:50 AM59 °FScattered clouds.13 mph88%29.86 "HgN/A
7:50 PM
Tue, Jun 28
57 °FPartly sunny.16 mph94%29.80 "HgN/A
7:20 PM57 °FLight rain. Fog.12 mph94%29.83 "Hg2 mi
6:50 PM57 °FLight rain. Fog.13 mph94%29.83 "Hg3 mi
6:20 PM57 °FLight rain. Scattered clouds.13 mph88%29.86 "Hg6 mi
5:50 PM57 °FRain. Scattered clouds.13 mph88%29.86 "Hg4 mi
5:20 PM57 °FRain. Partly sunny.15 mph88%29.89 "Hg3 mi
4:50 PM59 °FLight rain. Broken clouds.15 mph88%29.89 "Hg5 mi
4:20 PM61 °FLight rain. Scattered clouds.16 mph83%29.92 "HgN/A
3:50 PM63 °FScattered clouds.17 mph77%29.92 "HgN/A
3:20 PM63 °FPassing clouds.18 mph77%29.92 "HgN/A
Weather by CustomWeather, © 2016

See weather overviewHow to use our weather pages